Weather History for KGKJ - August, 2013

Change the Weather History Date:

Saturday, August 24, 2013

  Actual Average Record
Temperature  
Mean Temperature 64 °F -  
Max Temperature 78 °F 77 °F 91 °F (1968)
Min Temperature 51 °F 54 °F 40 °F (1951)
Growing Degree Days 14 (Base 50)    
Moisture  
Dew Point 52 °F    
Average Humidity 66    
Maximum Humidity 93    
Minimum Humidity 33    
Precipitation  
Precipitation 0.00 in - - ()
Sea Level Pressure  
Sea Level Pressure 30.30 in    
Wind  
Wind Speed 4 mph (NE)    
Max Wind Speed 7 mph    
Max Gust Speed -    
Visibility 10 miles    
Events      
Averages and records for this station are not official NWS values.
T = Trace of Precipitation, MM = Missing Value Source: NWS Daily Summary

Daily Weather History Graph

Daily Weather History Graph

Search for Another Location

Airport or City:

Trip Planner

Search our weather history database for the weather conditions in past years. The results will help you decide how hot, cold, wet, or windy it might be!

Date:

Astronomy

Aug. 24, 2013 Rise Set
Actual Time 6:38 AM EDT 8:06 PM EDT
Civil Twilight 6:09 AM EDT 8:35 PM EDT
Nautical Twilight 5:34 AM EDT 9:10 PM EDT
Astronomical Twilight 4:57 AM EDT 9:47 PM EDT
Moon 9:55 PM EDT (8/24) 10:41 AM EDT (8/24)
Length of Visible Light 14h 25m
Length of Day
13h 27m
Waning Gibbous, 84% of the Moon is Illuminated
Aug 24
Waning Gibbous
Aug 28
Last Quarter
Sep 5
New
Sep 12
First Quarter
Sep 19
Full

Hourly Weather History & Observations

Time (EDT) Temp. Dew Point Humidity Pressure Visibility Wind Dir Wind Speed Gust Speed Precip Events Conditions
12:53 AM 59.0 °F 51.1 °F 75% 30.22 in 10.0 mi NE 3.5 mph - N/A   Clear
1:53 AM 57.0 °F 51.1 °F 81% 30.22 in 10.0 mi ENE 4.6 mph - N/A   Clear
2:53 AM 57.9 °F 51.1 °F 78% 30.23 in 10.0 mi ENE 4.6 mph - N/A   Clear
3:53 AM 57.9 °F 51.1 °F 78% 30.24 in 10.0 mi East 4.6 mph - N/A   Clear
4:53 AM 57.0 °F 51.1 °F 81% 30.25 in 10.0 mi East 3.5 mph - N/A   Clear
5:53 AM 52.0 °F 50.0 °F 93% 30.26 in 10.0 mi ENE 3.5 mph - N/A   Clear
6:53 AM 51.1 °F 48.9 °F 92% 30.30 in 10.0 mi NE 3.5 mph - N/A   Clear
7:53 AM 57.9 °F 51.1 °F 78% 30.31 in 10.0 mi East 5.8 mph - N/A   Clear
8:53 AM 60.1 °F 52.0 °F 75% 30.34 in 10.0 mi East 6.9 mph - N/A   Clear
9:53 AM 64.9 °F 53.1 °F 65% 30.34 in 10.0 mi East 5.8 mph - N/A   Clear
10:53 AM 68.0 °F 53.1 °F 59% 30.34 in 10.0 mi Calm Calm - N/A   Clear
11:53 AM 72.0 °F 53.1 °F 51% 30.34 in 10.0 mi NNE 4.6 mph - N/A   Clear
12:53 PM 73.0 °F 53.1 °F 49% 30.33 in 10.0 mi Calm Calm - N/A   Clear
1:53 PM 75.0 °F 52.0 °F 44% 30.32 in 10.0 mi North 4.6 mph - N/A   Clear
2:53 PM 75.9 °F 48.9 °F 38% 30.31 in 10.0 mi Calm Calm - N/A   Clear
3:53 PM 78.1 °F 50.0 °F 37% 30.30 in 10.0 mi North 5.8 mph - N/A   Clear
4:53 PM 78.1 °F 46.9 °F 33% 30.29 in 10.0 mi NNE 3.5 mph - N/A   Clear
5:53 PM 78.1 °F 51.1 °F 39% 30.30 in 10.0 mi Calm Calm - N/A   Clear
6:53 PM 77.0 °F 50.0 °F 39% 30.30 in 10.0 mi Calm Calm - N/A   Clear
7:53 PM 70.0 °F 55.9 °F 61% 30.31 in 10.0 mi North 3.5 mph - N/A   Clear
8:53 PM 66.0 °F 59.0 °F 78% 30.33 in 10.0 mi North 5.8 mph - N/A   Clear
9:53 PM 63.0 °F 57.9 °F 84% 30.33 in 10.0 mi NE 4.6 mph - N/A   Clear
10:53 PM 62.1 °F 57.0 °F 84% 30.33 in 10.0 mi Calm Calm - N/A   Clear
11:53 PM 60.1 °F 57.0 °F 90% 30.32 in 10.0 mi Calm Calm - N/A   Clear